Location: Earls Croome
(52.0667°N, 2.2000°W)
Time: 18:29:17
(UTC+00:00)

MSX - Pass Details

Date: 17 November 2019
Orbit: 895 x 905 km, 98.8° (Epoch: 15 December)

Event Time Altitude Azimuth Distance (km) Brightness Sun altitude
Rises 04:37:07 0° 14° (NNE) 3,529 7.1 -26.5°
Reaches altitude 10° 04:39:32 10° 13° (NNE) 2,586 6.4 -26.1°
Maximum altitude 04:45:18 78° 289° (WNW) 926 3.7 -25.2°
Enters shadow 04:47:27 40° 210° (SSW) 1,294 4.4 -24.9°
